Tracking 18784 objects as of 17-August-2017
HD Live streaming from Space Station
objects crossing your sky now

ARIANE 44L+3 R/B

Track ARIANE 44L+3 R/B now!


NORAD ID: 23866
Int'l Code: 1996-030C
Perigee: 281.6 km
Apogee: 30,665.6 km
Inclination: 4.2 °
Period: 535.5 minutes
Semi major axis: 21844 km
RCS: 20.3809 m2 (large)
Launch date: May 16, 1996
Source: France (FR)
Launch site: FRENCH GUIANA (FRGUI)

Note: This is a ROCKET BODY
Your satellite tracking list
Your tracking list is empty





NASA's NSSDC Master Catalog

Two Line Element Set (TLE):
1 23866U 96030C   17228.51928647  .00003264  00000-0  12428-2 0  9999
2 23866   4.2112 137.4845 6954590   4.1160 359.4482  2.68897529192664
Source of the keplerian elements: AFSPC